Time,TemperatureF,DewpointF,PressureIn,WindDirection,WindDirectionDegrees,WindSpeedMPH,WindSpeedGustMPH,Humidity,HourlyPrecipIn,Conditions,Clouds,dailyrainin,SolarRadiationWatts/m^2,SoftwareType,DateUTC
2013-09-28 00:02:00,77.0,73.0,29.93,ENE,76,0.0,1.0,88,0.00,,,0.00,0,weatherlink.com 1.10,2013-09-28 04:02:00,
2013-09-28 00:17:00,77.1,74.0,29.93,ENE,76,0.0,1.0,89,0.00,,,0.00,0,weatherlink.com 1.10,2013-09-28 04:17:00,
2013-09-28 00:32:00,76.9,74.0,29.92,ENE,76,0.0,0.0,89,0.00,,,0.00,0,weatherlink.com 1.10,2013-09-28 04:32:00,
2013-09-28 00:47:00,76.7,73.0,29.91,ENE,76,0.0,0.0,89,0.00,,,0.00,0,weatherlink.com 1.10,2013-09-28 04:47:00,
2013-09-28 01:02:00,76.4,73.0,29.91,ENE,76,0.0,0.0,90,0.00,,,0.00,0,weatherlink.com 1.10,2013-09-28 05:02:00,
2013-09-28 01:17:00,75.9,73.0,29.92,ENE,76,0.0,0.0,91,0.00,,,0.00,0,weatherlink.com 1.10,2013-09-28 05:17:00,
2013-09-28 01:32:00,75.6,73.0,29.91,ENE,76,0.0,0.0,91,0.00,,,0.00,0,weatherlink.com 1.10,2013-09-28 05:32:00,
2013-09-28 01:47:00,75.3,73.0,29.91,ENE,76,0.0,0.0,92,0.00,,,0.00,0,weatherlink.com 1.10,2013-09-28 05:47:00,
2013-09-28 02:02:00,75.2,73.0,29.91,ENE,76,0.0,1.0,92,0.00,,,0.00,0,weatherlink.com 1.10,2013-09-28 06:02:00,
2013-09-28 02:17:00,75.2,73.0,29.91,ENE,76,0.0,0.0,92,0.00,,,0.00,0,weatherlink.com 1.10,2013-09-28 06:17:00,
2013-09-28 02:32:00,74.9,73.0,29.90,ENE,76,0.0,0.0,92,0.00,,,0.00,0,weatherlink.com 1.10,2013-09-28 06:32:00,
2013-09-28 02:47:00,74.7,72.0,29.90,ENE,76,0.0,0.0,92,0.00,,,0.00,0,weatherlink.com 1.10,2013-09-28 06:47:00,
2013-09-28 03:02:00,74.4,72.0,29.90,ENE,76,0.0,0.0,93,0.00,,,0.00,0,weatherlink.com 1.10,2013-09-28 07:02:00,
2013-09-28 03:17:00,74.2,72.0,29.89,ENE,76,0.0,0.0,93,0.00,,,0.00,0,weatherlink.com 1.10,2013-09-28 07:17:00,
2013-09-28 03:32:00,74.0,72.0,29.89,ENE,76,0.0,1.0,93,0.00,,,0.00,0,weatherlink.com 1.10,2013-09-28 07:32:00,
2013-09-28 03:47:00,74.0,72.0,29.89,ENE,76,0.0,0.0,93,0.00,,,0.00,0,weatherlink.com 1.10,2013-09-28 07:47:00,
2013-09-28 04:02:00,74.0,72.0,29.89,ENE,76,0.0,1.0,93,0.00,,,0.00,0,weatherlink.com 1.10,2013-09-28 08:02:00,
2013-09-28 04:17:00,73.9,72.0,29.89,ENE,76,0.0,0.0,93,0.00,,,0.00,0,weatherlink.com 1.10,2013-09-28 08:17:00,
2013-09-28 04:32:00,73.8,72.0,29.89,ENE,76,0.0,0.0,93,0.00,,,0.00,0,weatherlink.com 1.10,2013-09-28 08:32:00,
2013-09-28 04:47:00,73.6,72.0,29.89,ENE,76,0.0,0.0,94,0.00,,,0.00,0,weatherlink.com 1.10,2013-09-28 08:47:00,
2013-09-28 05:02:00,73.5,72.0,29.89,ENE,76,0.0,0.0,94,0.00,,,0.00,0,weatherlink.com 1.10,2013-09-28 09:02:00,
2013-09-28 05:17:00,73.6,72.0,29.88,ENE,76,0.0,0.0,94,0.00,,,0.00,0,weatherlink.com 1.10,2013-09-28 09:17:00,
2013-09-28 05:32:00,73.9,72.0,29.89,ENE,76,0.0,1.0,94,0.00,,,0.00,0,weatherlink.com 1.10,2013-09-28 09:32:00,
2013-09-28 05:47:00,74.1,72.0,29.89,ENE,76,0.0,1.0,94,0.00,,,0.00,0,weatherlink.com 1.10,2013-09-28 09:47:00,
2013-09-28 06:02:00,74.0,72.0,29.89,ENE,66,0.0,1.0,94,0.00,,,0.00,0,weatherlink.com 1.10,2013-09-28 10:02:00,
2013-09-28 06:17:00,73.9,72.0,29.90,ENE,66,0.0,0.0,93,0.00,,,0.00,0,weatherlink.com 1.10,2013-09-28 10:17:00,
2013-09-28 06:32:00,73.8,72.0,29.90,ENE,66,0.0,0.0,94,0.00,,,0.00,0,weatherlink.com 1.10,2013-09-28 10:32:00,
2013-09-28 06:47:00,73.7,72.0,29.91,ENE,66,0.0,1.0,94,0.00,,,0.00,0,weatherlink.com 1.10,2013-09-28 10:47:00,
2013-09-28 07:02:00,73.5,72.0,29.91,ENE,66,0.0,1.0,95,0.00,,,0.00,0,weatherlink.com 1.10,2013-09-28 11:02:00,
2013-09-28 07:17:00,73.3,72.0,29.92,ENE,66,0.0,0.0,95,0.00,,,0.00,0,weatherlink.com 1.10,2013-09-28 11:17:00,
2013-09-28 07:32:00,73.2,72.0,29.92,ENE,66,1.0,1.0,95,0.00,,,0.00,11,weatherlink.com 1.10,2013-09-28 11:32:00,
2013-09-28 07:47:00,73.3,72.0,29.93,ENE,66,0.0,1.0,95,0.00,,,0.00,21,weatherlink.com 1.10,2013-09-28 11:47:00,
2013-09-28 08:02:00,73.7,72.0,29.93,NE,53,0.0,2.0,95,0.00,,,0.00,28,weatherlink.com 1.10,2013-09-28 12:02:00,
2013-09-28 08:17:00,74.5,73.0,29.93,NE,51,0.0,2.0,94,0.00,,,0.00,37,weatherlink.com 1.10,2013-09-28 12:17:00,
2013-09-28 08:32:00,75.5,73.0,29.94,NNW,340,0.0,3.0,93,0.00,,,0.00,44,weatherlink.com 1.10,2013-09-28 12:32:00,
2013-09-28 08:47:00,76.7,74.0,29.94,North,349,1.0,4.0,91,0.00,,,0.00,56,weatherlink.com 1.10,2013-09-28 12:47:00,
2013-09-28 09:02:00,77.9,75.0,29.95,NE,40,0.0,3.0,89,0.00,,,0.00,76,weatherlink.com 1.10,2013-09-28 13:02:00,
2013-09-28 09:17:00,79.3,75.0,29.95,NNE,28,2.0,2.0,87,0.00,,,0.00,113,weatherlink.com 1.10,2013-09-28 13:17:00,
2013-09-28 09:33:00,80.3,76.0,29.96,NNW,336,3.0,3.0,85,0.00,,,0.00,90,weatherlink.com 1.10,2013-09-28 13:33:00,
2013-09-28 09:48:00,81.7,75.0,29.96,NE,42,0.0,3.0,81,0.00,,,0.00,67,weatherlink.com 1.10,2013-09-28 13:48:00,
2013-09-28 10:03:00,82.6,76.0,29.96,NE,51,0.0,3.0,79,0.00,,,0.00,70,weatherlink.com 1.10,2013-09-28 14:03:00,
2013-09-28 10:18:00,83.9,75.0,29.96,NE,53,0.0,3.0,74,0.00,,,0.00,594,weatherlink.com 1.10,2013-09-28 14:18:00,
2013-09-28 10:33:00,84.2,74.0,29.96,NE,50,0.0,5.0,72,0.00,,,0.00,104,weatherlink.com 1.10,2013-09-28 14:33:00,
2013-09-28 10:48:00,83.6,74.0,29.96,NNE,12,0.0,3.0,73,0.00,,,0.00,104,weatherlink.com 1.10,2013-09-28 14:48:00,
2013-09-28 11:03:00,84.2,75.0,29.96,NE,42,2.0,4.0,74,0.00,,,0.00,689,weatherlink.com 1.10,2013-09-28 15:03:00,
2013-09-28 11:18:00,85.6,75.0,29.96,North,350,2.0,7.0,70,0.00,,,0.00,169,weatherlink.com 1.10,2013-09-28 15:18:00,
2013-09-28 11:33:00,85.6,74.0,29.96,SSE,168,5.0,5.0,69,0.00,,,0.00,796,weatherlink.com 1.10,2013-09-28 15:33:00,
2013-09-28 11:48:00,86.8,74.0,29.96,NE,46,2.0,7.0,65,0.00,,,0.00,911,weatherlink.com 1.10,2013-09-28 15:48:00,
2013-09-28 12:03:00,86.5,74.0,29.96,East,82,0.0,2.0,67,0.00,,,0.00,227,weatherlink.com 1.10,2013-09-28 16:03:00,
2013-09-28 12:18:00,87.8,75.0,29.96,South,171,1.0,4.0,65,0.00,,,0.00,1062,weatherlink.com 1.10,2013-09-28 16:18:00,
2013-09-28 12:33:00,85.8,74.0,29.96,NW,322,2.0,6.0,68,0.00,,,0.00,315,weatherlink.com 1.10,2013-09-28 16:33:00,
2013-09-28 12:48:00,87.0,76.0,29.95,East,79,1.0,4.0,69,0.00,,,0.00,1030,weatherlink.com 1.10,2013-09-28 16:48:00,
2013-09-28 13:03:00,86.7,74.0,29.95,ENE,71,1.0,5.0,67,0.00,,,0.00,1055,weatherlink.com 1.10,2013-09-28 17:03:00,
2013-09-28 13:18:00,87.3,74.0,29.95,ENE,67,0.0,7.0,65,0.00,,,0.00,283,weatherlink.com 1.10,2013-09-28 17:18:00,
2013-09-28 13:33:00,87.1,74.0,29.94,NNW,336,3.0,4.0,65,0.00,,,0.00,937,weatherlink.com 1.10,2013-09-28 17:33:00,
2013-09-28 13:48:00,86.9,74.0,29.94,SE,129,0.0,5.0,66,0.00,,,0.00,330,weatherlink.com 1.10,2013-09-28 17:48:00,
2013-09-28 14:03:00,86.0,76.0,29.93,NE,42,0.0,5.0,71,0.00,,,0.00,309,weatherlink.com 1.10,2013-09-28 18:03:00,
2013-09-28 14:18:00,85.0,74.0,29.93,North,5,1.0,6.0,70,0.00,,,0.00,171,weatherlink.com 1.10,2013-09-28 18:18:00,
2013-09-28 14:33:00,85.6,75.0,29.92,NNE,13,1.0,8.0,71,0.00,,,0.00,960,weatherlink.com 1.10,2013-09-28 18:33:00,
2013-09-28 14:48:00,86.9,75.0,29.91,ENE,74,0.0,4.0,68,0.00,,,0.00,930,weatherlink.com 1.10,2013-09-28 18:48:00,
2013-09-28 15:03:00,86.6,74.0,29.91,ENE,58,0.0,6.0,66,0.00,,,0.00,686,weatherlink.com 1.10,2013-09-28 19:03:00,
2013-09-28 15:18:00,85.9,73.0,29.91,NE,36,3.0,8.0,65,0.00,,,0.00,172,weatherlink.com 1.10,2013-09-28 19:18:00,
2013-09-28 15:33:00,85.4,74.0,29.91,ESE,102,2.0,6.0,68,0.00,,,0.00,738,weatherlink.com 1.10,2013-09-28 19:33:00,
2013-09-28 15:48:00,85.1,74.0,29.91,NNE,16,5.0,7.0,69,0.00,,,0.00,663,weatherlink.com 1.10,2013-09-28 19:48:00,
2013-09-28 16:03:00,85.1,74.0,29.91,East,83,1.0,7.0,69,0.00,,,0.00,206,weatherlink.com 1.10,2013-09-28 20:03:00,
2013-09-28 16:18:00,84.5,74.0,29.91,ENE,65,0.0,10.0,71,0.00,,,0.00,162,weatherlink.com 1.10,2013-09-28 20:18:00,
2013-09-28 16:33:00,83.2,73.0,29.91,NE,44,0.0,7.0,72,0.00,,,0.00,65,weatherlink.com 1.10,2013-09-28 20:33:00,
2013-09-28 16:48:00,82.3,72.0,29.91,NNE,31,2.0,6.0,72,0.00,,,0.00,67,weatherlink.com 1.10,2013-09-28 20:48:00,
2013-09-28 17:03:00,82.2,72.0,29.91,East,88,0.0,7.0,72,0.00,,,0.00,42,weatherlink.com 1.10,2013-09-28 21:03:00,
2013-09-28 17:18:00,82.5,73.0,29.91,NNE,18,2.0,5.0,72,0.00,,,0.00,47,weatherlink.com 1.10,2013-09-28 21:18:00,
2013-09-28 17:33:00,83.3,73.0,29.91,NNE,29,4.0,8.0,71,0.00,,,0.00,54,weatherlink.com 1.10,2013-09-28 21:33:00,
2013-09-28 17:48:00,82.9,72.0,29.91,North,9,1.0,6.0,70,0.00,,,0.00,183,weatherlink.com 1.10,2013-09-28 21:48:00,
2013-09-28 18:03:00,82.7,72.0,29.91,NE,53,1.0,9.0,71,0.00,,,0.00,88,weatherlink.com 1.10,2013-09-28 22:03:00,
2013-09-28 18:18:00,82.2,72.0,29.92,North,351,2.0,3.0,72,0.00,,,0.00,23,weatherlink.com 1.10,2013-09-28 22:18:00,
2013-09-28 18:33:00,81.9,72.0,29.92,ENE,57,0.0,5.0,73,0.00,,,0.00,46,weatherlink.com 1.10,2013-09-28 22:33:00,
2013-09-28 18:48:00,81.5,73.0,29.92,NE,49,1.0,6.0,74,0.00,,,0.00,14,weatherlink.com 1.10,2013-09-28 22:48:00,
2013-09-28 19:03:00,81.0,73.0,29.92,ENE,71,2.0,5.0,76,0.00,,,0.00,5,weatherlink.com 1.10,2013-09-28 23:03:00,
2013-09-28 19:18:00,80.7,73.0,29.92,NE,36,0.0,4.0,76,0.00,,,0.00,0,weatherlink.com 1.10,2013-09-28 23:18:00,
2013-09-28 19:33:00,80.0,74.0,29.93,NNW,340,3.0,12.0,81,0.00,,,0.00,0,weatherlink.com 1.10,2013-09-28 23:33:00,
2013-09-28 19:48:00,75.5,71.0,29.94,ENE,62,0.0,8.0,87,0.08,,,0.08,0,weatherlink.com 1.10,2013-09-28 23:48:00,
2013-09-28 20:03:00,74.4,72.0,29.93,ENE,62,0.0,1.0,92,0.08,,,0.08,0,weatherlink.com 1.10,2013-09-29 00:03:00,
2013-09-28 20:18:00,74.2,72.0,29.94,ENE,62,0.0,0.0,93,0.08,,,0.08,0,weatherlink.com 1.10,2013-09-29 00:18:00,
2013-09-28 20:33:00,73.9,72.0,29.95,ENE,78,1.0,7.0,93,0.39,,,0.39,0,weatherlink.com 1.10,2013-09-29 00:33:00,
2013-09-28 20:48:00,74.1,73.0,29.95,SE,134,1.0,5.0,95,0.39,,,0.47,0,weatherlink.com 1.10,2013-09-29 00:48:00,
2013-09-28 21:03:00,74.2,73.0,29.96,SE,141,0.0,0.0,95,0.39,,,0.47,0,weatherlink.com 1.10,2013-09-29 01:03:00,
2013-09-28 21:21:00,74.2,73.0,29.97,SE,141,0.0,0.0,95,0.39,,,0.47,0,weatherlink.com 1.10,2013-09-29 01:21:00,
2013-09-28 21:33:00,74.3,73.0,29.97,SE,141,0.0,0.0,95,0.07,,,0.47,0,weatherlink.com 1.10,2013-09-29 01:33:00,
2013-09-28 21:49:00,74.3,73.0,29.97,SE,141,0.0,0.0,95,0.00,,,0.47,0,weatherlink.com 1.10,2013-09-29 01:49:00,
2013-09-28 22:04:00,74.2,73.0,29.97,SE,141,0.0,0.0,96,0.00,,,0.47,0,weatherlink.com 1.10,2013-09-29 02:04:00,
2013-09-28 22:19:00,74.0,73.0,29.97,SE,141,0.0,0.0,96,0.00,,,0.47,0,weatherlink.com 1.10,2013-09-29 02:19:00,
2013-09-28 22:34:00,73.7,73.0,29.97,SE,141,0.0,0.0,96,0.00,,,0.47,0,weatherlink.com 1.10,2013-09-29 02:34:00,
2013-09-28 22:54:00,73.3,72.0,29.97,SE,141,0.0,0.0,96,0.00,,,0.47,0,weatherlink.com 1.10,2013-09-29 02:54:00,
2013-09-28 23:08:00,73.1,72.0,29.97,SE,141,0.0,0.0,96,0.00,,,0.47,0,weatherlink.com 1.10,2013-09-29 03:08:00,
2013-09-28 23:19:00,72.9,72.0,29.97,SE,141,0.0,0.0,96,0.00,,,0.47,0,weatherlink.com 1.10,2013-09-29 03:19:00,
2013-09-28 23:41:00,72.8,72.0,29.96,SE,141,0.0,0.0,96,0.00,,,0.47,0,weatherlink.com 1.10,2013-09-29 03:41:00,